Weather in Manuel Antonio

Costa Rica     9°24′37″N   84°09′17″W
temp.,
°C
wind,
m/s
gust,
m/s
humid.,
%
clouds,
%
prec.,
mm/h
press.,
hPa
HPBL,
m
27 october, wed
wed2700:00+24ne228946 0.3 101161
03:00+23nne218495 1.0 101050
06:00+23nne2278100 1.0 101169
09:00+28sse1167100 0.0 1013477
12:00+28s3271100 0.0 1011786
15:00+27s2276100 0.1 1009610
18:00+25se1186100 0.5 1011128
21:00+25e1187100 0.0 1013127
28 october, thu
thu2800:00+25ne118997 0.1 101258
03:00+24ne118993 0.2 101145
06:00+24ne118618 0.3 101256
09:00+28s2270100 0.0 1014722
12:00+28ssw327292 0.2 1012927
15:00+26ssw2280100 1.5 1010534
18:00+25ene1188100 3.8 101251
21:00+24ene118980 0.4 101341
29 october, fri
fri2900:00+24nne118878 0.9 101258
03:00+23n118949 0.0 101164
06:00+23nne118821 0.0 101268
09:00+27ssw1173100 0.1 1014595
12:00+27ssw227945 3.5 1012652
15:00+26sw228255 4.9 1010490
18:00+24e119098 8.8 101273
21:00+23ne119166 1.1 101352
30 october, sat
sat3000:00+23ene119098 2.9 101236
03:00+23nnw119095 1.8 101053
06:00+23nne119116 2.1 101288
09:00+26ssw117935 1.0 1013573
12:00+26sw338065 2.4 1011692
15:00+25wsw2385100 3.8 1009515
18:00+24e119186 9.6 101256
21:00+23ene1293100 4.2 101369
31 october, sun
sun3100:00+23ene1188100 7.0 101243
03:00+23e1189100 0.8 101164
06:00+23ne1187100 1.5 101276
09:00+26sse227516 0.0 1014609
12:00+27ssw327549 0.4 1012815
15:00+26ssw228173 1.1 1010550
18:00+23e2395100 5.3 1013160
21:00+23nne1190100 0.6 101458